| time (UTC) | temp F | wind direction | speed MPH | gust MPH | rain 1hr in | rain 24hr in | rain mn in | humidity % | barometer mb |
| 20260904092112 | 88 | 196 | 2.0 | 5.0 | 0.00 | 0.00 | 0.00 | 51 | 1019.7 |
| 20260904091552 | 88 | 136 | 1.0 | 3.0 | 0.00 | 0.00 | 0.00 | 52 | 1019.6 |
| 20260904091113 | 87 | 178 | 1.0 | 3.0 | 0.00 | 0.00 | 0.00 | 53 | 1019.6 |
| 20260904090616 | 87 | 178 | 1.0 | 4.0 | 0.00 | 0.00 | 0.00 | 53 | 1019.7 |
| 20260904090048 | 86 | 190 | 1.0 | 4.0 | 0.00 | 0.00 | 0.00 | 53 | 1019.7 |
| 20260904085602 | 86 | 168 | 1.0 | 3.0 | 0.00 | 0.00 | 0.00 | 54 | 1019.7 |
| 20260904085102 | 85 | 130 | 1.0 | 3.0 | 0.00 | 0.00 | 0.00 | 54 | 1019.7 |
| 20260904084556 | 84 | 98 | 0.0 | 4.0 | 0.00 | 0.00 | 0.00 | 56 | 1019.7 |
| 20260904084118 | 84 | 82 | 2.0 | 4.0 | 0.00 | 0.00 | 0.00 | 56 | 1019.7 |
| 20260904083550 | 84 | 71 | 0.0 | 3.0 | 0.00 | 0.00 | 0.00 | 57 | 1019.7 |
| 20260904083051 | 83 | 67 | 2.0 | 3.0 | 0.00 | 0.00 | 0.00 | 57 | 1019.8 |
| 20260904082612 | 83 | 13 | 1.0 | 6.0 | 0.00 | 0.00 | 0.00 | 59 | 1019.8 |
| 20260904082106 | 82 | 51 | 2.0 | 6.0 | 0.00 | 0.00 | 0.00 | 59 | 1019.8 |
| 20260904081607 | 82 | 36 | 2.0 | 5.0 | 0.00 | 0.00 | 0.00 | 60 | 1019.8 |
| 20260904081055 | 81 | 28 | 2.0 | 5.0 | 0.00 | 0.00 | 0.00 | 60 | 1019.8 |
| 20260904080556 | 81 | 71 | 2.0 | 6.0 | 0.00 | 0.00 | 0.00 | 60 | 1019.8 |
| 20260904080050 | 81 | 64 | 3.0 | 5.0 | 0.00 | 0.00 | 0.00 | 61 | 1019.7 |
| 20260904075551 | 81 | 44 | 2.0 | 4.0 | 0.00 | 0.00 | 0.00 | 61 | 1019.7 |
| 20260904075111 | 80 | 23 | 1.0 | 4.0 | 0.00 | 0.00 | 0.00 | 63 | 1019.7 |
| 20260904074605 | 80 | 29 | 2.0 | 4.0 | 0.00 | 0.00 | 0.00 | 63 | 1019.7 |
| 20260904074106 | 80 | 49 | 2.0 | 4.0 | 0.00 | 0.00 | 0.00 | 63 | 1019.8 |
| 20260904073627 | 79 | 63 | 2.0 | 4.0 | 0.00 | 0.00 | 0.00 | 63 | 1019.7 |
| 20260904073059 | 79 | 76 | 3.0 | 5.0 | 0.00 | 0.00 | 0.00 | 63 | 1019.6 |
| 20260904072554 | 79 | 40 | 1.0 | 3.0 | 0.00 | 0.00 | 0.00 | 65 | 1019.6 |
| 20260904072054 | 79 | 67 | 1.0 | 5.0 | 0.00 | 0.00 | 0.00 | 65 | 1019.7 |
| 20260904071555 | 78 | 64 | 2.0 | 5.0 | 0.00 | 0.00 | 0.00 | 66 | 1019.7 |
| 20260904071134 | 78 | 67 | 2.0 | 4.0 | 0.00 | 0.00 | 0.00 | 67 | 1019.7 |
| 20260904070607 | 78 | 57 | 1.0 | 4.0 | 0.00 | 0.00 | 0.00 | 67 | 1019.7 |
| 20260904070127 | 77 | 62 | 2.0 | 4.0 | 0.00 | 0.00 | 0.00 | 68 | 1019.7 |
| 20260904065627 | 77 | 18 | 1.0 | 4.0 | 0.00 | 0.00 | 0.00 | 68 | 1019.6 |
| 20260904065100 | 77 | 26 | 0.0 | 3.0 | 0.00 | 0.00 | 0.00 | 70 | 1019.6 |
| 20260904064600 | 76 | 26 | 1.0 | 3.0 | 0.00 | 0.00 | 0.00 | 71 | 1019.6 |
| 20260904064054 | 76 | 341 | 1.0 | 2.0 | 0.00 | 0.00 | 0.00 | 72 | 1019.6 |
| 20260904063555 | 75 | 341 | 1.0 | 2.0 | 0.00 | 0.00 | 0.00 | 73 | 1019.6 |
| 20260904063049 | 74 | 333 | 1.0 | 2.0 | 0.00 | 0.00 | 0.00 | 75 | 1019.6 |
| 20260904062610 | 74 | 332 | 0.0 | 2.0 | 0.00 | 0.00 | 0.00 | 76 | 1019.5 |
| 20260904062104 | 73 | 332 | 0.0 | 2.0 | 0.00 | 0.00 | 0.00 | 77 | 1019.5 |
| 20260904061605 | 73 | 332 | 1.0 | 3.0 | 0.00 | 0.00 | 0.00 | 78 | 1019.5 |
| 20260904061125 | 73 | 332 | 1.0 | 3.0 | 0.00 | 0.00 | 0.00 | 77 | 1019.5 |
| 20260904060559 | 72 | 331 | 1.0 | 2.0 | 0.00 | 0.00 | 0.00 | 78 | 1019.4 |
| 20260904060059 | 72 | 331 | 0.0 | 0.0 | 0.00 | 0.00 | 0.00 | 78 | 1019.5 |
| 20260904055552 | 71 | 331 | 0.0 | 0.0 | 0.00 | 0.00 | 0.00 | 80 | 1019.5 |
| 20260904055053 | 71 | 331 | 0.0 | 0.0 | 0.00 | 0.00 | 0.00 | 80 | 1019.5 |
| 20260904054607 | 71 | 331 | 0.0 | 0.0 | 0.00 | 0.00 | 0.00 | 80 | 1019.5 |
| 20260904054048 | 70 | 331 | 0.0 | 0.0 | 0.00 | 0.00 | 0.00 | 81 | 1019.4 |
| 20260904053612 | 70 | 331 | 0.0 | 0.0 | 0.00 | 0.00 | 0.00 | 81 | 1019.4 |
| 20260904053112 | 70 | 331 | 0.0 | 0.0 | 0.00 | 0.00 | 0.00 | 82 | 1019.4 |
| 20260904052606 | 70 | 331 | 0.0 | 0.0 | 0.00 | 0.00 | 0.00 | 82 | 1019.4 |
| 20260904052107 | 69 | 331 | 0.0 | 0.0 | 0.00 | 0.00 | 0.00 | 82 | 1019.4 |
| 20260904051602 | 69 | 331 | 0.0 | 0.0 | 0.00 | 0.00 | 0.00 | 82 | 1019.4 |
| 20260904051102 | 69 | 331 | 0.0 | 1.0 | 0.00 | 0.00 | 0.00 | 83 | 1019.3 |
| 20260904050556 | 69 | 331 | 0.0 | 1.0 | 0.00 | 0.00 | 0.00 | 83 | 1019.3 |
| 20260904050050 | 69 | 331 | 0.0 | 3.0 | 0.00 | 0.00 | 0.00 | 83 | 1019.2 |
| 20260904045552 | 69 | 331 | 0.0 | 3.0 | 0.00 | 0.00 | 0.00 | 83 | 1019.2 |
| 20260904045052 | 69 | 331 | 1.0 | 3.0 | 0.00 | 0.00 | 0.00 | 83 | 1019.2 |
| 20260904044614 | 69 | 331 | 1.0 | 3.0 | 0.00 | 0.00 | 0.00 | 82 | 1019.2 |
| 20260904044126 | 69 | 331 | 1.0 | 2.0 | 0.00 | 0.00 | 0.00 | 82 | 1019.2 |
| 20260904043606 | 70 | 331 | 1.0 | 2.0 | 0.00 | 0.00 | 0.00 | 82 | 1019.1 |
| 20260904043100 | 70 | 331 | 0.0 | 3.0 | 0.00 | 0.00 | 0.00 | 82 | 1019.1 |
| 20260904042601 | 70 | 331 | 2.0 | 3.0 | 0.00 | 0.00 | 0.00 | 82 | 1019.1 |
| 20260904042055 | 70 | 331 | 0.0 | 2.0 | 0.00 | 0.00 | 0.00 | 81 | 1019.1 |
| 20260904041548 | 70 | 331 | 0.0 | 0.0 | 0.00 | 0.00 | 0.00 | 81 | 1019.1 |
| 20260904041049 | 70 | 331 | 0.0 | 0.0 | 0.00 | 0.00 | 0.00 | 81 | 1019.1 |
| 20260904040612 | 70 | 331 | 0.0 | 0.0 | 0.00 | 0.00 | 0.00 | 81 | 1019.0 |
| 20260904040111 | 70 | 331 | 0.0 | 0.0 | 0.00 | 0.00 | 0.00 | 81 | 1019.0 |
| 20260904035605 | 70 | 331 | 0.0 | 0.0 | 0.00 | 0.00 | 0.00 | 81 | 1018.9 |
| 20260904035059 | 70 | 331 | 0.0 | 0.0 | 0.00 | 0.00 | 0.00 | 81 | 1018.9 |
| 20260904034600 | 70 | 331 | 0.0 | 0.0 | 0.00 | 0.00 | 0.00 | 81 | 1019.0 |
| 20260904034121 | 71 | 331 | 0.0 | 0.0 | 0.00 | 0.00 | 0.00 | 81 | 1019.0 |
| 20260904033555 | 71 | 331 | 0.0 | 0.0 | 0.00 | 0.00 | 0.00 | 80 | 1019.1 |
| 20260904033055 | 71 | 331 | 0.0 | 0.0 | 0.00 | 0.00 | 0.00 | 80 | 1019.1 |
| 20260904032604 | 71 | 331 | 0.0 | 0.0 | 0.00 | 0.00 | 0.00 | 80 | 1019.1 |
| 20260904032058 | 71 | 331 | 0.0 | 0.0 | 0.00 | 0.00 | 0.00 | 80 | 1019.2 |
| 20260904031556 | 71 | 331 | 0.0 | 3.0 | 0.00 | 0.00 | 0.00 | 80 | 1019.0 |
| 20260904031050 | 71 | 331 | 0.0 | 3.0 | 0.00 | 0.00 | 0.00 | 80 | 1018.9 |
| 20260904030610 | 71 | 330 | 1.0 | 2.0 | 0.00 | 0.00 | 0.00 | 80 | 1018.9 |
| 20260904030104 | 71 | 330 | 0.0 | 2.0 | 0.00 | 0.00 | 0.00 | 79 | 1018.9 |
| 20260904025605 | 71 | 330 | 1.0 | 3.0 | 0.00 | 0.00 | 0.00 | 79 | 1018.9 |
| 20260904025059 | 71 | 330 | 1.0 | 3.0 | 0.00 | 0.00 | 0.00 | 79 | 1018.8 |
| 20260904024620 | 72 | 329 | 0.0 | 3.0 | 0.00 | 0.00 | 0.00 | 78 | 1018.8 |
| 20260904024052 | 72 | 329 | 1.0 | 3.0 | 0.00 | 0.00 | 0.00 | 78 | 1018.8 |
| 20260904023554 | 72 | 323 | 0.0 | 2.0 | 0.00 | 0.00 | 0.00 | 78 | 1018.8 |
| 20260904023110 | 72 | 323 | 1.0 | 2.0 | 0.00 | 0.00 | 0.00 | 78 | 1018.8 |
| 20260904022548 | 72 | 322 | 1.0 | 2.0 | 0.00 | 0.00 | 0.00 | 78 | 1018.8 |
| 20260904022055 | 72 | 322 | 0.0 | 2.0 | 0.00 | 0.00 | 0.00 | 78 | 1018.9 |
| 20260904021556 | 72 | 322 | 0.0 | 2.0 | 0.00 | 0.00 | 0.00 | 78 | 1018.8 |
| 20260904021049 | 72 | 322 | 1.0 | 2.0 | 0.00 | 0.00 | 0.00 | 78 | 1018.8 |
| 20260904020610 | 72 | 322 | 1.0 | 2.0 | 0.00 | 0.00 | 0.00 | 77 | 1018.8 |
| 20260904020111 | 72 | 321 | 0.0 | 4.0 | 0.00 | 0.00 | 0.00 | 77 | 1018.7 |
| 20260904015611 | 72 | 322 | 2.0 | 4.0 | 0.00 | 0.00 | 0.00 | 77 | 1018.7 |
| 20260904015104 | 72 | 329 | 1.0 | 3.0 | 0.00 | 0.00 | 0.00 | 77 | 1018.7 |
| 20260904014605 | 72 | 329 | 1.0 | 3.0 | 0.00 | 0.00 | 0.00 | 76 | 1018.7 |
| 20260904014059 | 72 | 329 | 1.0 | 3.0 | 0.00 | 0.00 | 0.00 | 76 | 1018.8 |
| 20260904013559 | 72 | 329 | 1.0 | 3.0 | 0.00 | 0.00 | 0.00 | 75 | 1018.7 |
| 20260904013053 | 72 | 329 | 1.0 | 3.0 | 0.00 | 0.00 | 0.00 | 75 | 1018.7 |
| 20260904012553 | 72 | 330 | 1.0 | 2.0 | 0.00 | 0.00 | 0.00 | 75 | 1018.7 |
| 20260904012115 | 72 | 330 | 0.0 | 1.0 | 0.00 | 0.00 | 0.00 | 74 | 1018.7 |
| 20260904011547 | 72 | 330 | 0.0 | 2.0 | 0.00 | 0.00 | 0.00 | 74 | 1018.8 |
| 20260904011101 | 72 | 330 | 0.0 | 2.0 | 0.00 | 0.00 | 0.00 | 74 | 1018.8 |
| 20260904010602 | 73 | 330 | 0.0 | 1.0 | 0.00 | 0.00 | 0.00 | 73 | 1018.8 |
| 20260904010056 | 73 | 330 | 0.0 | 2.0 | 0.00 | 0.00 | 0.00 | 73 | 1018.8 |
| 20260904005556 | 73 | 330 | 1.0 | 2.0 | 0.00 | 0.00 | 0.00 | 72 | 1018.8 |
| 20260904005050 | 73 | 330 | 0.0 | 0.0 | 0.00 | 0.00 | 0.00 | 72 | 1018.8 |
| 20260904004612 | 73 | 330 | 0.0 | 0.0 | 0.00 | 0.00 | 0.00 | 71 | 1018.8 |
| 20260904004050 | 73 | 330 | 0.0 | 0.0 | 0.00 | 0.00 | 0.00 | 71 | 1018.8 |
| 20260904003611 | 73 | 330 | 0.0 | 0.0 | 0.00 | 0.00 | 0.00 | 70 | 1018.9 |
| 20260904003104 | 74 | 330 | 0.0 | 0.0 | 0.00 | 0.00 | 0.00 | 70 | 1018.9 |
| 20260904002558 | 74 | 330 | 0.0 | 0.0 | 0.00 | 0.00 | 0.00 | 70 | 1018.9 |
| 20260904002119 | 74 | 330 | 0.0 | 0.0 | 0.00 | 0.00 | 0.00 | 70 | 1018.9 |
| 20260904001559 | 74 | 330 | 0.0 | 0.0 | 0.00 | 0.00 | 0.00 | 70 | 1019.0 |
| 20260904001053 | 74 | 330 | 0.0 | 0.0 | 0.00 | 0.00 | 0.00 | 69 | 1019.0 |
| 20260904000554 | 74 | 330 | 0.0 | 0.0 | 0.00 | 0.00 | 0.00 | 69 | 1018.9 |
| 20260904000109 | 74 | 330 | 0.0 | 0.0 | 0.00 | 0.00 | 0.00 | 69 | 1018.9 |
| 20260903235548 | 74 | 330 | 0.0 | 0.0 | 0.00 | 0.00 | 0.00 | 69 | 1019.0 |
| 20260903235109 | 74 | 330 | 0.0 | 0.0 | 0.00 | 0.00 | 0.00 | 69 | 1018.9 |
| 20260903234603 | 74 | 330 | 0.0 | 0.0 | 0.00 | 0.00 | 0.00 | 69 | 1018.8 |
| 20260903234103 | 74 | 330 | 0.0 | 0.0 | 0.00 | 0.00 | 0.00 | 69 | 1018.9 |
| 20260903233620 | 74 | 330 | 0.0 | 0.0 | 0.00 | 0.00 | 0.00 | 69 | 1018.7 |
| 20260903233052 | 74 | 330 | 0.0 | 0.0 | 0.00 | 0.00 | 0.00 | 68 | 1018.8 |
| 20260903232614 | 74 | 330 | 0.0 | 0.0 | 0.00 | 0.00 | 0.00 | 69 | 1018.8 |
| 20260903232113 | 74 | 330 | 0.0 | 0.0 | 0.00 | 0.00 | 0.00 | 69 | 1018.9 |
| 20260903231607 | 74 | 330 | 0.0 | 0.0 | 0.00 | 0.00 | 0.00 | 69 | 1019.0 |
| 20260903231101 | 74 | 330 | 0.0 | 0.0 | 0.00 | 0.00 | 0.00 | 69 | 1018.9 |
| 20260903230621 | 74 | 330 | 0.0 | 0.0 | 0.00 | 0.00 | 0.00 | 69 | 1019.0 |
| 20260903230100 | 74 | 330 | 0.0 | 0.0 | 0.00 | 0.00 | 0.00 | 69 | 1019.0 |
| 20260903225554 | 74 | 330 | 0.0 | 0.0 | 0.00 | 0.00 | 0.00 | 69 | 1019.1 |
| 20260903225055 | 75 | 330 | 0.0 | 0.0 | 0.00 | 0.00 | 0.00 | 70 | 1019.1 |
| 20260903224549 | 75 | 330 | 0.0 | 0.0 | 0.00 | 0.00 | 0.00 | 69 | 1019.0 |
| 20260903224110 | 75 | 330 | 0.0 | 0.0 | 0.00 | 0.00 | 0.00 | 69 | 1019.0 |
| 20260903223631 | 75 | 330 | 0.0 | 0.0 | 0.00 | 0.00 | 0.00 | 68 | 1019.0 |
| 20260903223103 | 75 | 330 | 0.0 | 0.0 | 0.00 | 0.00 | 0.00 | 68 | 1018.9 |
| 20260903222557 | 75 | 330 | 0.0 | 1.0 | 0.00 | 0.00 | 0.00 | 68 | 1018.9 |
| 20260903222057 | 75 | 330 | 0.0 | 1.0 | 0.00 | 0.00 | 0.00 | 68 | 1018.8 |
| 20260903221618 | 75 | 330 | 0.0 | 3.0 | 0.00 | 0.00 | 0.00 | 68 | 1018.7 |
| 20260903221051 | 76 | 330 | 2.0 | 3.0 | 0.00 | 0.00 | 0.00 | 67 | 1018.7 |
| 20260903220612 | 76 | 335 | 0.0 | 2.0 | 0.00 | 0.00 | 0.00 | 65 | 1018.7 |
| 20260903220111 | 76 | 339 | 0.0 | 0.0 | 0.00 | 0.00 | 0.00 | 65 | 1018.7 |
| 20260903215605 | 76 | 339 | 0.0 | 0.0 | 0.00 | 0.00 | 0.00 | 65 | 1018.6 |
| 20260903215106 | 76 | 339 | 0.0 | 0.0 | 0.00 | 0.00 | 0.00 | 65 | 1018.6 |
| 20260903214600 | 76 | 339 | 0.0 | 0.0 | 0.00 | 0.00 | 0.00 | 65 | 1018.5 |
| 20260903214100 | 77 | 339 | 0.0 | 0.0 | 0.00 | 0.00 | 0.00 | 64 | 1018.4 |
| 20260903213554 | 77 | 339 | 0.0 | 0.0 | 0.00 | 0.00 | 0.00 | 64 | 1018.4 |
| 20260903213115 | 77 | 339 | 0.0 | 0.0 | 0.00 | 0.00 | 0.00 | 63 | 1018.4 |
| 20260903212554 | 77 | 339 | 0.0 | 0.0 | 0.00 | 0.00 | 0.00 | 63 | 1018.4 |
| 20260903212048 | 77 | 339 | 0.0 | 0.0 | 0.00 | 0.00 | 0.00 | 62 | 1018.4 |
| 20260903211609 | 77 | 339 | 0.0 | 1.0 | 0.00 | 0.00 | 0.00 | 62 | 1018.3 |
| 20260903211103 | 78 | 339 | 0.0 | 1.0 | 0.00 | 0.00 | 0.00 | 62 | 1018.4 |
| 20260903210600 | 78 | 333 | 0.0 | 0.0 | 0.00 | 0.00 | 0.00 | 61 | 1018.3 |
| 20260903205612 | 79 | 331 | 0.0 | 3.0 | 0.00 | 0.00 | 0.00 | 59 | 1018.3 |
| 20260903205051 | 79 | 331 | 1.0 | 3.0 | 0.00 | 0.00 | 0.00 | 58 | 1018.4 |
| 20260903204613 | 80 | 330 | 1.0 | 3.0 | 0.00 | 0.00 | 0.00 | 57 | 1018.4 |
| 20260903204107 | 81 | 144 | 1.0 | 3.0 | 0.00 | 0.00 | 0.00 | 56 | 1018.4 |
| 20260903203601 | 81 | 144 | 0.0 | 1.0 | 0.00 | 0.00 | 0.00 | 54 | 1018.3 |
| 20260903203101 | 81 | 144 | 0.0 | 1.0 | 0.00 | 0.00 | 0.00 | 54 | 1018.3 |
| 20260903202600 | 81 | 144 | 0.0 | 1.0 | 0.00 | 0.00 | 0.00 | 54 | 1018.3 |
| 20260903202054 | 81 | 144 | 0.0 | 1.0 | 0.00 | 0.00 | 0.00 | 54 | 1018.2 |
| 20260903201606 | 81 | 144 | 0.0 | 0.0 | 0.00 | 0.00 | 0.00 | 54 | 1018.2 |
| 20260903201107 | 81 | 144 | 0.0 | 2.0 | 0.00 | 0.00 | 0.00 | 53 | 1018.1 |
| 20260903200608 | 82 | 144 | 0.0 | 3.0 | 0.00 | 0.00 | 0.00 | 53 | 1018.1 |
| 20260903200121 | 82 | 144 | 1.0 | 4.0 | 0.00 | 0.00 | 0.00 | 53 | 1018.0 |
| 20260903195601 | 82 | 144 | 0.0 | 3.0 | 0.00 | 0.00 | 0.00 | 53 | 1018.1 |
| 20260903195100 | 82 | 145 | 2.0 | 3.0 | 0.00 | 0.00 | 0.00 | 53 | 1018.0 |
| 20260903194553 | 82 | 140 | 1.0 | 3.0 | 0.00 | 0.00 | 0.00 | 52 | 1018.0 |
| 20260903194048 | 82 | 138 | 1.0 | 4.0 | 0.00 | 0.00 | 0.00 | 52 | 1018.0 |
| 20260903193549 | 82 | 135 | 2.0 | 4.0 | 0.00 | 0.00 | 0.00 | 53 | 1017.9 |
| 20260903193109 | 82 | 146 | 2.0 | 4.0 | 0.00 | 0.00 | 0.00 | 53 | 1017.9 |
| 20260903192603 | 82 | 142 | 1.0 | 8.0 | 0.00 | 0.00 | 0.00 | 53 | 1017.9 |
| 20260903192103 | 83 | 135 | 1.0 | 8.0 | 0.00 | 0.00 | 0.00 | 52 | 1017.9 |
| 20260903191557 | 83 | 130 | 3.0 | 6.0 | 0.00 | 0.00 | 0.00 | 52 | 1017.9 |
| 20260903191101 | 83 | 142 | 2.0 | 5.0 | 0.00 | 0.00 | 0.00 | 52 | 1017.9 |
| 20260903190553 | 83 | 142 | 3.0 | 5.0 | 0.00 | 0.00 | 0.00 | 52 | 1017.9 |
| 20260903190114 | 83 | 162 | 2.0 | 5.0 | 0.00 | 0.00 | 0.00 | 51 | 1017.8 |
| 20260903185547 | 83 | 130 | 3.0 | 5.0 | 0.00 | 0.00 | 0.00 | 51 | 1017.7 |
| 20260903185108 | 83 | 161 | 2.0 | 5.0 | 0.00 | 0.00 | 0.00 | 51 | 1017.7 |
| 20260903184602 | 83 | 137 | 2.0 | 7.0 | 0.00 | 0.00 | 0.00 | 50 | 1017.7 |
| 20260903184101 | 84 | 161 | 1.0 | 7.0 | 0.00 | 0.00 | 0.00 | 50 | 1017.7 |
| 20260903183555 | 84 | 143 | 2.0 | 7.0 | 0.00 | 0.00 | 0.00 | 50 | 1017.6 |
| 20260903183055 | 84 | 168 | 1.0 | 5.0 | 0.00 | 0.00 | 0.00 | 50 | 1017.7 |
| 20260903182615 | 84 | 157 | 2.0 | 5.0 | 0.00 | 0.00 | 0.00 | 49 | 1017.6 |
| 20260903182050 | 84 | 151 | 1.0 | 5.0 | 0.00 | 0.00 | 0.00 | 49 | 1017.5 |
| 20260903181604 | 85 | 153 | 2.0 | 5.0 | 0.00 | 0.00 | 0.00 | 48 | 1017.5 |
| 20260903181104 | 85 | 165 | 2.0 | 4.0 | 0.00 | 0.00 | 0.00 | 48 | 1017.4 |
| 20260903180558 | 85 | 152 | 1.0 | 7.0 | 0.00 | 0.00 | 0.00 | 48 | 1017.4 |
| 20260903180059 | 85 | 130 | 2.0 | 7.0 | 0.00 | 0.00 | 0.00 | 48 | 1017.5 |
| 20260903175620 | 86 | 136 | 1.0 | 7.0 | 0.00 | 0.00 | 0.00 | 47 | 1017.4 |
| 20260903175054 | 86 | 156 | 2.0 | 7.0 | 0.00 | 0.00 | 0.00 | 47 | 1017.3 |
| 20260903174601 | 86 | 149 | 3.0 | 8.0 | 0.00 | 0.00 | 0.00 | 47 | 1017.2 |
| 20260903174056 | 86 | 140 | 3.0 | 8.0 | 0.00 | 0.00 | 0.00 | 46 | 1017.3 |
| 20260903173556 | 86 | 140 | 2.0 | 8.0 | 0.00 | 0.00 | 0.00 | 46 | 1017.2 |
| 20260903173051 | 87 | 154 | 3.0 | 7.0 | 0.00 | 0.00 | 0.00 | 46 | 1017.2 |
| 20260903172612 | 87 | 150 | 4.0 | 8.0 | 0.00 | 0.00 | 0.00 | 46 | 1017.2 |
| 20260903172112 | 87 | 157 | 4.0 | 9.0 | 0.00 | 0.00 | 0.00 | 45 | 1017.2 |
| 20260903171605 | 88 | 169 | 3.0 | 10.0 | 0.00 | 0.00 | 0.00 | 45 | 1017.2 |
| 20260903171127 | 88 | 134 | 4.0 | 10.0 | 0.00 | 0.00 | 0.00 | 45 | 1017.3 |
| 20260903170606 | 88 | 144 | 3.0 | 6.0 | 0.00 | 0.00 | 0.00 | 45 | 1017.4 |
| 20260903170059 | 88 | 134 | 2.0 | 5.0 | 0.00 | 0.00 | 0.00 | 45 | 1017.4 |
| 20260903165553 | 88 | 141 | 2.0 | 8.0 | 0.00 | 0.00 | 0.00 | 45 | 1017.3 |
| 20260903165114 | 89 | 161 | 3.0 | 8.0 | 0.00 | 0.00 | 0.00 | 45 | 1017.2 |
| 20260903164554 | 89 | 177 | 3.0 | 7.0 | 0.00 | 0.00 | 0.00 | 45 | 1017.3 |
| 20260903164048 | 89 | 165 | 2.0 | 7.0 | 0.00 | 0.00 | 0.00 | 44 | 1017.3 |
| 20260903163549 | 89 | 202 | 2.0 | 8.0 | 0.00 | 0.00 | 0.00 | 44 | 1017.3 |
| 20260903163104 | 89 | 155 | 2.0 | 8.0 | 0.00 | 0.00 | 0.00 | 44 | 1017.2 |
| 20260903162603 | 90 | 168 | 4.0 | 7.0 | 0.00 | 0.00 | 0.00 | 44 | 1017.3 |
| 20260903162104 | 90 | 171 | 3.0 | 8.0 | 0.00 | 0.00 | 0.00 | 44 | 1017.3 |
| 20260903161557 | 90 | 167 | 1.0 | 7.0 | 0.00 | 0.00 | 0.00 | 45 | 1017.2 |
| 20260903161051 | 90 | 165 | 3.0 | 7.0 | 0.00 | 0.00 | 0.00 | 44 | 1017.1 |
| 20260903160611 | 90 | 146 | 1.0 | 9.0 | 0.00 | 0.00 | 0.00 | 44 | 1017.1 |
| 20260903160052 | 90 | 141 | 4.0 | 9.0 | 0.00 | 0.00 | 0.00 | 43 | 1017.1 |
| 20260903155613 | 91 | 130 | 2.0 | 8.0 | 0.00 | 0.00 | 0.00 | 44 | 1017.1 |
| 20260903155106 | 91 | 147 | 4.0 | 8.0 | 0.00 | 0.00 | 0.00 | 44 | 1017.0 |
| 20260903154627 | 91 | 173 | 1.0 | 7.0 | 0.00 | 0.00 | 0.00 | 44 | 1017.0 |
| 20260903154105 | 91 | 125 | 3.0 | 7.0 | 0.00 | 0.00 | 0.00 | 43 | 1016.9 |
| 20260903153558 | 91 | 148 | 3.0 | 8.0 | 0.00 | 0.00 | 0.00 | 44 | 1016.9 |
| 20260903153101 | 91 | 198 | 4.0 | 10.0 | 0.00 | 0.00 | 0.00 | 44 | 1016.9 |
| 20260903152553 | 91 | 211 | 3.0 | 10.0 | 0.00 | 0.00 | 0.00 | 45 | 1016.9 |
| 20260903152107 | 91 | 226 | 5.0 | 9.0 | 0.00 | 0.00 | 0.00 | 44 | 1016.9 |
| 20260903151600 | 91 | 180 | 5.0 | 9.0 | 0.00 | 0.00 | 0.00 | 45 | 1016.9 |
| 20260903151101 | 91 | 169 | 5.0 | 9.0 | 0.00 | 0.00 | 0.00 | 44 | 1016.9 |
| 20260903150600 | 92 | 134 | 3.0 | 6.0 | 0.00 | 0.00 | 0.00 | 44 | 1016.8 |
| 20260903150054 | 92 | 186 | 3.0 | 6.0 | 0.00 | 0.00 | 0.00 | 44 | 1016.8 |
| 20260903145555 | 92 | 219 | 3.0 | 6.0 | 0.00 | 0.00 | 0.00 | 44 | 1016.9 |
| 20260903145048 | 92 | 157 | 4.0 | 5.0 | 0.00 | 0.00 | 0.00 | 44 | 1017.0 |
| 20260903144609 | 92 | 186 | 3.0 | 6.0 | 0.00 | 0.00 | 0.00 | 43 | 1017.1 |
| 20260903144103 | 92 | 191 | 3.0 | 5.0 | 0.00 | 0.00 | 0.00 | 43 | 1017.3 |
| 20260903143603 | 92 | 139 | 3.0 | 5.0 | 0.00 | 0.00 | 0.00 | 43 | 1017.3 |
| 20260903143104 | 92 | 244 | 3.0 | 7.0 | 0.00 | 0.00 | 0.00 | 43 | 1017.4 |
| 20260903142558 | 93 | 166 | 4.0 | 7.0 | 0.00 | 0.00 | 0.00 | 43 | 1017.6 |
| 20260903142051 | 93 | 182 | 2.0 | 7.0 | 0.00 | 0.00 | 0.00 | 43 | 1017.6 |
| 20260903141612 | 93 | 212 | 4.0 | 6.0 | 0.00 | 0.00 | 0.00 | 43 | 1017.6 |
| 20260903141052 | 93 | 206 | 1.0 | 4.0 | 0.00 | 0.00 | 0.00 | 43 | 1017.6 |
| 20260903140606 | 93 | 222 | 2.0 | 6.0 | 0.00 | 0.00 | 0.00 | 43 | 1017.7 |
| 20260903140127 | 93 | 231 | 3.0 | 7.0 | 0.00 | 0.00 | 0.00 | 43 | 1017.8 |
| 20260903135606 | 93 | 202 | 4.0 | 7.0 | 0.00 | 0.00 | 0.00 | 42 | 1017.8 |
| 20260903135127 | 93 | 167 | 0.0 | 9.0 | 0.00 | 0.00 | 0.00 | 42 | 1017.7 |
| 20260903134559 | 93 | 185 | 4.0 | 9.0 | 0.00 | 0.00 | 0.00 | 42 | 1017.7 |
| 20260903134122 | 93 | 136 | 2.0 | 7.0 | 0.00 | 0.00 | 0.00 | 42 | 1017.7 |
| 20260903133554 | 93 | 219 | 4.0 | 7.0 | 0.00 | 0.00 | 0.00 | 42 | 1017.7 |
| 20260903133054 | 93 | 240 | 1.0 | 4.0 | 0.00 | 0.00 | 0.00 | 41 | 1017.8 |
| 20260903132548 | 92 | 202 | 1.0 | 7.0 | 0.00 | 0.00 | 0.00 | 42 | 1017.8 |
| 20260903132049 | 92 | 252 | 0.0 | 7.0 | 0.00 | 0.00 | 0.00 | 42 | 1017.9 |
| 20260903131603 | 93 | 246 | 2.0 | 7.0 | 0.00 | 0.00 | 0.00 | 41 | 1017.9 |
| 20260903131103 | 92 | 190 | 0.0 | 4.0 | 0.00 | 0.00 | 0.00 | 42 | 1017.9 |
| 20260903130557 | 92 | 192 | 2.0 | 7.0 | 0.00 | 0.00 | 0.00 | 41 | 1017.9 |
| 20260903130057 | 92 | 211 | 3.0 | 9.0 | 0.00 | 0.00 | 0.00 | 42 | 1017.9 |
| 20260903125551 | 93 | 223 | 6.0 | 9.0 | 0.00 | 0.00 | 0.00 | 41 | 1017.9 |
| 20260903125053 | 93 | 234 | 3.0 | 6.0 | 0.00 | 0.00 | 0.00 | 41 | 1017.9 |
| 20260903124606 | 93 | 245 | 1.0 | 5.0 | 0.00 | 0.00 | 0.00 | 41 | 1018.0 |
| 20260903124106 | 93 | 244 | 1.0 | 5.0 | 0.00 | 0.00 | 0.00 | 41 | 1018.2 |
| 20260903123607 | 93 | 248 | 2.0 | 7.0 | 0.00 | 0.00 | 0.00 | 41 | 1018.2 |
| 20260903123056 | 92 | 165 | 3.0 | 7.0 | 0.00 | 0.00 | 0.00 | 42 | 1018.3 |
| 20260903122617 | 92 | 200 | 3.0 | 7.0 | 0.00 | 0.00 | 0.00 | 43 | 1018.3 |
| 20260903122057 | 92 | 83 | 2.0 | 6.0 | 0.00 | 0.00 | 0.00 | 41 | 1018.3 |
| 20260903121548 | 93 | 126 | 3.0 | 5.0 | 0.00 | 0.00 | 0.00 | 41 | 1018.3 |
| 20260903121109 | 93 | 223 | 0.0 | 4.0 | 0.00 | 0.00 | 0.00 | 42 | 1018.4 |
| 20260903120602 | 92 | 279 | 1.0 | 4.0 | 0.00 | 0.00 | 0.00 | 42 | 1018.4 |
| 20260903115554 | 92 | 59 | 1.0 | 4.0 | 0.00 | 0.00 | 0.00 | 42 | 1018.5 |
| 20260903115055 | 92 | 5 | 1.0 | 3.0 | 0.00 | 0.00 | 0.00 | 42 | 1018.4 |
| 20260903114548 | 93 | 112 | 2.0 | 5.0 | 0.00 | 0.00 | 0.00 | 42 | 1018.4 |
| 20260903114109 | 92 | 144 | 2.0 | 5.0 | 0.00 | 0.00 | 0.00 | 43 | 1018.5 |
| 20260903113603 | 92 | 140 | 1.0 | 3.0 | 0.00 | 0.00 | 0.00 | 42 | 1018.5 |
| 20260903113104 | 91 | 139 | 1.0 | 4.0 | 0.00 | 0.00 | 0.00 | 42 | 1018.6 |
| 20260903112558 | 90 | 105 | 1.0 | 4.0 | 0.00 | 0.00 | 0.00 | 44 | 1018.7 |
| 20260903112058 | 89 | 105 | 1.0 | 5.0 | 0.00 | 0.00 | 0.00 | 45 | 1018.8 |
| 20260903111552 | 90 | 41 | 3.0 | 5.0 | 0.00 | 0.00 | 0.00 | 44 | 1018.8 |
| 20260903111112 | 90 | 82 | 2.0 | 6.0 | 0.00 | 0.00 | 0.00 | 45 | 1018.9 |
| 20260903110606 | 91 | 61 | 1.0 | 4.0 | 0.00 | 0.00 | 0.00 | 43 | 1018.9 |
| 20260903110107 | 91 | 103 | 2.0 | 5.0 | 0.00 | 0.00 | 0.00 | 44 | 1018.9 |
| 20260903105601 | 91 | 195 | 1.0 | 3.0 | 0.00 | 0.00 | 0.00 | 44 | 1018.9 |
| 20260903105122 | 90 | 136 | 1.0 | 4.0 | 0.00 | 0.00 | 0.00 | 44 | 1019.0 |
| 20260903104554 | 89 | 140 | 1.0 | 4.0 | 0.00 | 0.00 | 0.00 | 45 | 1019.0 |
| 20260903104056 | 89 | 111 | 2.0 | 4.0 | 0.00 | 0.00 | 0.00 | 46 | 1018.9 |
| 20260903103550 | 89 | 97 | 1.0 | 6.0 | 0.00 | 0.00 | 0.00 | 46 | 1019.0 |
| 20260903103051 | 89 | 103 | 3.0 | 6.0 | 0.00 | 0.00 | 0.00 | 47 | 1019.1 |
| 20260903102604 | 88 | 175 | 1.0 | 4.0 | 0.00 | 0.00 | 0.00 | 47 | 1019.2 |
| 20260903102106 | 88 | 96 | 3.0 | 6.0 | 0.00 | 0.00 | 0.00 | 46 | 1019.2 |
| 20260903101559 | 88 | 67 | 2.0 | 6.0 | 0.00 | 0.00 | 0.00 | 48 | 1019.3 |
| 20260903101101 | 87 | 55 | 3.0 | 6.0 | 0.00 | 0.00 | 0.00 | 48 | 1019.4 |
| 20260903100555 | 87 | 9 | 2.0 | 5.0 | 0.00 | 0.00 | 0.00 | 48 | 1019.4 |
| 20260903100055 | 87 | 105 | 1.0 | 4.0 | 0.00 | 0.00 | 0.00 | 49 | 1019.4 |
| 20260903095548 | 87 | 64 | 2.0 | 4.0 | 0.00 | 0.00 | 0.00 | 49 | 1019.6 |
| 20260903095049 | 86 | 48 | 2.0 | 4.0 | 0.00 | 0.00 | 0.00 | 50 | 1019.7 |
| 20260903094603 | 86 | 360 | 3.0 | 5.0 | 0.00 | 0.00 | 0.00 | 50 | 1019.8 |
| 20260903094104 | 86 | 45 | 2.0 | 5.0 | 0.00 | 0.00 | 0.00 | 50 | 1019.8 |
| 20260903093558 | 86 | 92 | 2.0 | 5.0 | 0.00 | 0.00 | 0.00 | 50 | 1019.7 |
| 20260903093059 | 85 | 9 | 1.0 | 6.0 | 0.00 | 0.00 | 0.00 | 52 | 1019.8 |
| 20260903092622 | 85 | 74 | 3.0 | 7.0 | 0.00 | 0.00 | 0.00 | 50 | 1019.8 |